TimeCST,TemperatureF,Dew PointF,Humidity,Sea Level PressureIn,VisibilityMPH,Wind Direction,Wind SpeedMPH,Gust SpeedMPH,PrecipitationIn,Events,Conditions,WindDirDegrees,DateUTC
12:00 AM,64.4,60.8,88,30.33,6.2,NNE,5.8,-,N/A,,Scattered Clouds,20,2013-08-02 06:00:00
1:00 AM,64.4,60.8,88,30.30,6.2,North,4.6,-,N/A,,Partly Cloudy,360,2013-08-02 07:00:00
1:17 AM,-9999,-9999,N/A,-9999,6.2,North,4.6,-,N/A,,Mostly Cloudy,360,2013-08-02 07:17:00
2:00 AM,64.4,60.8,88,30.30,6.2,North,4.6,-,N/A,,Mostly Cloudy,360,2013-08-02 08:00:00
3:00 AM,62.6,60.8,94,30.27,6.2,North,9.2,-,N/A,,Mostly Cloudy,360,2013-08-02 09:00:00
4:00 AM,62.6,60.8,94,30.24,6.2,North,9.2,-,N/A,,Mostly Cloudy,360,2013-08-02 10:00:00
5:00 AM,62.6,60.8,94,30.24,6.2,NNE,13.8,-,N/A,,Mostly Cloudy,20,2013-08-02 11:00:00
6:00 AM,62,59,88,29.95,25,North,11.5,,,,Overcast,0,2013-08-02 12:00:00
6:00 AM,62.6,59.0,88,30.27,6.2,North,11.5,-,N/A,,Mostly Cloudy,360,2013-08-02 12:00:00
7:00 AM,62.6,59.0,88,30.30,6.2,NNE,9.2,-,N/A,,Mostly Cloudy,30,2013-08-02 13:00:00
8:00 AM,66.2,59.0,78,30.30,6.2,North,11.5,-,N/A,,Scattered Clouds,360,2013-08-02 14:00:00
9:00 AM,69.8,59.0,68,30.30,6.2,North,11.5,-,N/A,,Scattered Clouds,360,2013-08-02 15:00:00
10:00 AM,71.6,59.0,64,30.30,6.2,North,11.5,-,N/A,,Partly Cloudy,360,2013-08-02 16:00:00
11:00 AM,73.4,59.0,61,30.30,6.2,North,9.2,-,N/A,,Scattered Clouds,360,2013-08-02 17:00:00
12:00 PM,76,59,46,29.92,25,NNE,11.5,,,,Partly Cloudy,20,2013-08-02 18:00:00
12:00 PM,77.0,59.0,54,30.27,6.2,NNE,11.5,-,N/A,,Partly Cloudy,20,2013-08-02 18:00:00
1:00 PM,77.0,59.0,54,30.27,5.0,North,11.5,-,N/A,,Partly Cloudy,360,2013-08-02 19:00:00
1:14 PM,-9999,-9999,N/A,-9999,5.0,NE,11.5,-,N/A,Thunderstorm,Thunderstorm,40,2013-08-02 19:14:00
2:00 PM,75.2,59.0,57,30.24,6.2,NE,11.5,-,N/A,,Partly Cloudy,40,2013-08-02 20:00:00
2:43 PM,-9999,-9999,N/A,-9999,6.2,South,6.9,-,N/A,,Partly Cloudy,180,2013-08-02 20:43:00
3:00 PM,68.0,62.6,83,30.24,6.2,South,11.5,-,N/A,Thunderstorm,Thunderstorm,180,2013-08-02 21:00:00
4:00 PM,69.8,62.6,78,30.21,6.2,South,6.9,-,N/A,,Scattered Clouds,180,2013-08-02 22:00:00
5:00 PM,68.0,62.6,83,30.21,6.2,South,6.9,-,N/A,,Scattered Clouds,180,2013-08-02 23:00:00
6:00 PM,68.0,60.8,78,30.24,6.2,SW,4.6,-,N/A,,Scattered Clouds,220,2013-08-03 00:00:00
7:00 PM,68.0,62.6,83,30.27,6.2,Variable,3.5,-,N/A,,Mostly Cloudy,0,2013-08-03 01:00:00
8:00 PM,69.8,59.0,68,30.30,6.2,NNE,4.6,-,N/A,,Scattered Clouds,30,2013-08-03 02:00:00
9:00 PM,68.0,59.0,73,30.33,6.2,North,6.9,-,N/A,,Scattered Clouds,360,2013-08-03 03:00:00
10:00 PM,66.2,60.8,83,30.33,6.2,North,11.5,-,N/A,,Partly Cloudy,360,2013-08-03 04:00:00
11:00 PM,64.4,60.8,88,30.33,6.2,North,11.5,-,N/A,,Partly Cloudy,360,2013-08-03 05:00:00